Regional Weather Roundup
Issued by NWS Upton, NY

Current Version | Previous Version | Text Only | Print | Product List | Glossary On
Versions: 1 2 3 4 5 6 7 8 9 10 11 12 13 14 15 16 17 18 19 20 21 22 23 24 25 26 27 28 29 30 31 32 33 34 35 36 37 38 39 40 41 42 43 44 45 46 47 48 49 50
000
ASUS41 KOKX 242008
RWROKX

REGIONAL WEATHER ROUNDUP
NATIONAL WEATHER SERVICE NEW YORK NY
400 PM EDT SUN MAY 24 2015

NOTE: "FAIR" INDICATES FEW OR NO CLOUDS BELOW 12,000 FEET WITH NO
SIGNIFICANT WEATHER AND/OR OBSTRUCTIONS TO VISIBILITY.

NYZ071-072-176-178-NJZ106-104-242100-
NEW YORK CITY METRO AREA


CITY           SKY/WX    TMP DP  RH WIND       PRES   REMARKS
CENTRAL PARK   MOSUNNY   79  42  26 MISG      30.27F
LAGUARDIA APRT PTSUNNY   78  47  33 S17       30.24F
KENNEDY INTL   PTSUNNY   72  50  45 S22G28    30.28F
NEWARK/LIBERTY PTSUNNY   82  37  20 SW12G18   30.24F
BRNX BOT. GARD   N/A     75  46  35 SE12      30.25F
TETERBORO      MOSUNNY   81  37  20 CALM      30.23F
$$

NYZ177-179-078>081-242100-
LONG ISLAND NEW YORK

CITY           SKY/WX    TMP DP  RH WIND       PRES   REMARKS
FARMINGDALE    PTSUNNY   70  51  51 S21       30.28F
ISLIP          CLOUDY    68  49  50 SW20G28   30.27F
SHIRLEY        CLOUDY    68  48  48 SW15G23   30.29F
WESTHAMPTON    CLOUDY    65  47  52 SW15G24   30.30F
MONTAUK POINT    N/A     66  48  52 SW12G23   30.28F
$$

NYZ052-065-067-242100-
HUDSON VALLEY

CITY           SKY/WX    TMP DP  RH WIND       PRES   REMARKS
WHITE PLAINS   PTSUNNY   77  45  32 S8        30.24F
NEWBURGH       PTSUNNY   79  41  25 W12G23    30.23F
MONTGOMERY     MOSUNNY   80  38  22 SW9       30.21F
POUGHKEEPSIE   MOSUNNY   81  38  21 SW12      30.21F
ALBANY         PTSUNNY   81  38  21 W9        30.18F
$$

NJZ001-105-106-008-010-013-015-019>022-104-242100-
NEW JERSEY

CITY           SKY/WX    TMP DP  RH WIND       PRES   REMARKS
NEWARK/LIBERTY PTSUNNY   82  37  20 SW12G18   30.24F
TETERBORO      MOSUNNY   81  37  20 CALM      30.23F
CALDWELL       PTSUNNY   80  35  19 VRB6      30.24F
MORRISTOWN     PTSUNNY   82  36  18 SW13G20   30.24F
SOMERVILLE     MOSUNNY   81  37  20 W8        30.23F
SUSSEX         PTSUNNY   80  39  23 VRB6G21   30.24F
ANDOVER          N/A     77  40  26 SW6       30.24F
TRENTON        PTSUNNY   80  47  31 SW9       30.25F
MILLVILLE      SUNNY     74  50  42 S12       30.30F
ATLANTIC CITY  MOSUNNY   73  46  38 S15       30.30F
WRIGHTSTOWN    MOSUNNY   80  49  33 W14G21    30.24F
TOMS RIVER     MOSUNNY  N/A N/A N/A S10G17    30.26F
BELMAR         MOSUNNY   81  48  32 W15       30.27F
$$

PAZ047>061-062-071-242100-
EASTERN PENNSYLVANIA

CITY           SKY/WX    TMP DP  RH WIND       PRES   REMARKS
PHILADELPHIA   MOSUNNY   81  46  29 SW13      30.28F
ALLENTOWN      SUNNY     81  38  21 SW12      30.25F
SCRANTON       MOSUNNY   78  34  20 W8G18     30.24F
$$

CTZ002-004>006-009-010-012-RIZ004-006-007-MAZ004-011-015-242100-
SOUTHERN NEW ENGLAND
 IN CT

CITY           SKY/WX    TMP DP  RH WIND       PRES   REMARKS
BRADLEY INTL   PTSUNNY   81  36  19 S15G22    30.19S
HARTFORD       PTSUNNY   80  35  19 SW15G23   30.20F
DANBURY        PTSUNNY   76  38  25 SW12      30.25F
WTRBRY/OXFORD  PTSUNNY   75  37  25 SW7G16    30.26F
BRIDGEPORT     PTSUNNY   72  51  47 S16       30.24F
MERIDEN        PTSUNNY   79  37  22 SW9       30.22F
NEW HAVEN      PTSUNNY   69  50  50 S9G18     30.25F
CHESTER        FAIR      73  39  29 SW14G20   30.26S
GROTON         PTSUNNY   65  52  62 SW15      30.25F
WILLIMANTIC    PTSUNNY   79  38  22 SW10G17   30.21F

 IN RI

CITY           SKY/WX    TMP DP  RH WIND       PRES   REMARKS
PROVIDENCE     MOSUNNY   79  32  18 SW16G23   30.20F
BLOCK ISLAND   PTSUNNY   61  46  59 SW22G29   30.27F
WESTERLY       MOSUNNY   68  50  52 SW13G21   30.26S

 IN MA

CITY           SKY/WX    TMP DP  RH WIND       PRES   REMARKS
BOSTON         MOSUNNY   82  37  20 W17G25    30.15F
WORCESTER      MOSUNNY   78  36  21 W13G29    30.20F
WESTFIELD      MOSUNNY   82  35  18 SW10      30.19F
PROVINCETOWN   SUNNY     66  48  52 SW20G25   30.19S
NANTUCKET      SUNNY     61  50  67 SW23      30.27S
$$

ANZ330-335-338-340-345-350-353-355-242100-
COASTAL MARINE OBSERVATIONS


STATION/POSITION TIME  SKY/WX   TEMP    WIND        PRES    VSBY  WAVE
                                AIR SEA DIR/SP/G                  HT/PER
                 (UTC)          (F)     (DEG/KT/KT) (MB)    (MI)  (FT/S)
NY HARB ENTRANCE 1950            60 56  190/ 16/ 17 1024.9          2/ 4
4S FIRE IS       1903               54                N/A           3/ 4
20S FIRE ISLAND  1950            59 56  210/ 16/ 19 1025.7          3/ 4
GREAT SOUTH BAY  1930            61 63  260/ 16/ 21   N/A
23SW MTP         1950            57 53  230/ 17/ 19 1025.5          3/ 5
HUDSON CANYON    NOT AVBL
KINGS POINT      1900            70 56  190/ 12/ 14 1024.4
CENTRAL LI SOUND 1900            60 53  200/  8/ 10   N/A
EASTERN LI SOUND 1900            58     210/  6/ 10   N/A
ROBBINS REEF     1900            69     160/ 15/ 16 1023.7
$$


>>>>>>>>>>>>>>>>>>>>>>>>>>>> KEY <<<<<<<<<<<<<<<<<<<<<<<<<<<
>                                                          <
>     SKY/WX - SKY CONDITION/PRESENT WEATHER               <
>     TMP    - TEMPERATURE IN FAHRENHEIT                   <
>     DP     - DEWPOINT IN FAHRENHEIT                      <
>     RH     - RELATIVE HUMIDITY IN PERCENT                <
>     WIND   - DIRECTION AND SPEED IN MPH                  <
>     PRES   - MEAN SEA LEVEL PRESSURE IN INCHES OF HG     <
>     WCI    - WIND CHILL INDEX                            <
>     VSB    - VISIBILITY IN MILES                         <
>     HX     - HEAT INDEX                                  <
>     TC     - TEMPERATURE IN CELSIUS                      <
>     VRB    - VARIABLE WIND DIRECTION                     <
>                                                          <
>>>>>>>>>>>>>>>>>>>>>>>>>>>> KEY <<<<<<<<<<<<<<<<<<<<<<<<<<<




USA.gov is the U.S. government's official web portal to all federal, state and local government web resources and services.